Etusivu
METAR-TAF:

METAR-TAF

Lentoasemat :

Red Oak Municipal Airport

Red Oak, Iowa, Yhdysvallat

Leveyspiiri: 41-01N, Pituuspiiri: 095-16W, korkeus merenpinnasta: 318 m

Tämänhetkinen sää

Tämä raportti tehtiin 21 minuuttia sitten, kello 08.55 UTC
tyyntä
Lämpötila -4°C
Kosteus 100%
Ilmanpaine 1020 hPa
Näkyvyys: 16.1 km
selkeää

METAR: KRDK 260855Z AUTO 00000KT 10SM CLR M04/M04 A3012 RMK AO2

Aika: 03:16 (09:16 UTC)


TAF: puuttuu

Säähavainnot ja -ennusteet yli 4000 lentoasemalta (METAR- ja TAF-raportit).

Käytössä olevat sääasemat on merkitty karttaan keltaisilla ja punaisilla pisteillä.

Aseta hiiri pisteen päälle nähdäksesi sääaseman nimen.

Klikkaa sitten nähdäksesi säähavainnot ja -ennusteet.

Kartan vaihtaminen: klikkaa mustalla rastilla varustettuja vihreitä pisteitä, niin voit zoomata sisään; viivalla varustettua vihreää pistettä, niin voit zoomata ulos tai vihreitä nuolia, niin pääset viereisille kartoille.


METAR-TAF: